Regional Weather Roundup
Issued by NWS Upton, NY

Current Version | Previous Version | Text Only | Print | Product List | Glossary On
Versions: 1 2 3 4 5 6 7 8 9 10 11 12 13 14 15 16 17 18 19 20 21 22 23 24 25 26 27 28 29 30 31 32 33 34 35 36 37 38 39 40 41 42 43 44 45 46 47 48 49
000
ASUS41 KOKX 011604
RWROKX

REGIONAL WEATHER ROUNDUP
NATIONAL WEATHER SERVICE NEW YORK NY
1200 PM EDT SAT AUG 01 2015

NOTE: "FAIR" INDICATES FEW OR NO CLOUDS BELOW 12,000 FEET WITH NO
SIGNIFICANT WEATHER AND/OR OBSTRUCTIONS TO VISIBILITY.

NYZ071-072-176-178-NJZ106-104-011700-
NEW YORK CITY METRO AREA


CITY           SKY/WX    TMP DP  RH WIND       PRES   REMARKS
CENTRAL PARK   MOSUNNY   84  61  45 VRB3      29.84R
LAGUARDIA APRT PTSUNNY   85  59  41 W13       29.80S
KENNEDY INTL   PTSUNNY   84  64  50 SW13      29.82R
NEWARK/LIBERTY MOSUNNY   86  62  44 W7        29.81R
BRNX BOT. GARD   N/A     84  61  45 SW17      29.83R
TETERBORO      MOSUNNY   85  62  46 SW7       29.79S
$$

NYZ177-179-078>081-011700-
LONG ISLAND NEW YORK

CITY           SKY/WX    TMP DP  RH WIND       PRES   REMARKS
FARMINGDALE    MOSUNNY   88  61  40 W16       29.80S
ISLIP          PTSUNNY   88  63  43 SW9G16    29.78R
SHIRLEY        SUNNY     88  66  48 SW12      29.80R HX  90
WESTHAMPTON    SUNNY     87  64  46 SW12      29.81R
MONTAUK POINT    N/A     84  70  62 S8        29.80S
$$

NYZ052-065-067-011700-
HUDSON VALLEY

CITY           SKY/WX    TMP DP  RH WIND       PRES   REMARKS
WHITE PLAINS   MOSUNNY   83  62  49 SW9       29.81S
NEWBURGH       NOT AVBL
MONTGOMERY     SUNNY     84  61  45 W13G20    29.80S
POUGHKEEPSIE   SUNNY     85  60  42 W13       29.78S
ALBANY         MOSUNNY   81  60  48 NW10      29.79S
$$

NJZ001-105-106-008-010-013-015-019>022-104-011700-
NEW JERSEY

CITY           SKY/WX    TMP DP  RH WIND       PRES   REMARKS
NEWARK/LIBERTY MOSUNNY   86  62  44 W7        29.81R
TETERBORO      MOSUNNY   85  62  46 SW7       29.79S
CALDWELL       MOSUNNY   84  59  42 NW10      29.81S
MORRISTOWN     MOSUNNY   86  61  42 W12G18    29.82R
SOMERVILLE     SUNNY     85  60  42 MISG      29.81S
SUSSEX         MOSUNNY   82  60  47 VRB6      29.82R
ANDOVER          N/A     81  63  54 VRB7      29.84R
TRENTON        MOSUNNY   84  61  45 W12       29.84S
MILLVILLE      MOSUNNY   87  64  46 W13       29.87R
ATLANTIC CITY  SUNNY     88  65  46 W10       29.85S HX  90
WRIGHTSTOWN    NOT AVBL
TOMS RIVER       N/A     88  63  42 W10G18    29.84S
BELMAR         PTSUNNY   82  64  54 W8        29.84R
$$

PAZ047>061-062-071-011700-
EASTERN PENNSYLVANIA

CITY           SKY/WX    TMP DP  RH WIND       PRES   REMARKS
PHILADELPHIA   MOSUNNY   86  58  38 W9        29.86R
ALLENTOWN      SUNNY     83  64  52 W15G21    29.84S
SCRANTON       MOSUNNY   79  60  52 VRB5      29.86R
$$

CTZ002-004>006-009-010-012-RIZ004-006-007-MAZ004-011-015-011700-
SOUTHERN NEW ENGLAND
 IN CT

CITY           SKY/WX    TMP DP  RH WIND       PRES   REMARKS
BRADLEY INTL   MOSUNNY   85  61  44 W7        29.77R
HARTFORD       MOSUNNY   84  62  47 VRB5      29.76S
DANBURY        SUNNY     81  61  50 VRB6      29.81S
WTRBRY/OXFORD  MOSUNNY   81  63  54 W5        29.84R
BRIDGEPORT     PTSUNNY   82  66  58 SW14      29.79R
MERIDEN        MOSUNNY   85  60  42 W9        29.78R
NEW HAVEN      CLOUDY    78  66  66 SW12      29.78S
CHESTER        FAIR      82  66  57 SW9       29.80R
GROTON         SUNNY     80  67  64 SW14      29.77S
WILLIMANTIC    MOSUNNY   84  62  47 W12       29.77S

 IN RI

CITY           SKY/WX    TMP DP  RH WIND       PRES   REMARKS
PROVIDENCE     PTSUNNY   87  61  41 SW10G17   29.76F
BLOCK ISLAND     N/A     82  68  61 SW12      29.80S
WESTERLY       SUNNY     81  65  58 SW8       29.79R

 IN MA

CITY           SKY/WX    TMP DP  RH WIND       PRES   REMARKS
BOSTON         PTSUNNY   86  59  39 SW10      29.74F
WORCESTER      PTSUNNY   79  60  52 SW9       29.80R
WESTFIELD      SUNNY     83  59  44 W8        29.77S
PROVINCETOWN   MOSUNNY   82  64  54 SW10      29.76S
NANTUCKET      SUNNY     78  69  73 SW15      29.80S
$$

ANZ330-335-338-340-345-350-353-355-011700-
COASTAL MARINE OBSERVATIONS


STATION/POSITION TIME  SKY/WX   TEMP    WIND        PRES    VSBY  WAVE
                                AIR SEA DIR/SP/G                  HT/PER
                 (UTC)          (F)     (DEG/KT/KT) (MB)    (MI)  (FT/S)
NY HARB ENTRANCE 1450            77 77  250/  8/ 10 1009.2          3/ 9
4S FIRE IS       NOT AVBL
20S FIRE ISLAND  1450            76 76  250/ 12/ 14 1009.4          4/10
GREAT SOUTH BAY  1500            76 80  250/ 16/ 19   N/A
23SW MTP         1550            75 75  240/ 12/ 16 1008.7          4/10
HUDSON CANYON    NOT AVBL
KINGS POINT      1500            79 70  280/  6/  9 1008.3
EXECUTION ROCKS  1500            78     260/  4/  8   N/A
CENTRAL LI SOUND NOT AVBL
EASTERN LI SOUND 1500            74 69  230/  6/  6   N/A
ROBBINS REEF     1500            79     260/ 12/ 13 1008.2
$$


>>>>>>>>>>>>>>>>>>>>>>>>>>>> KEY <<<<<<<<<<<<<<<<<<<<<<<<<<<
>                                                          <
>     SKY/WX - SKY CONDITION/PRESENT WEATHER               <
>     TMP    - TEMPERATURE IN FAHRENHEIT                   <
>     DP     - DEWPOINT IN FAHRENHEIT                      <
>     RH     - RELATIVE HUMIDITY IN PERCENT                <
>     WIND   - DIRECTION AND SPEED IN MPH                  <
>     PRES   - MEAN SEA LEVEL PRESSURE IN INCHES OF HG     <
>     WCI    - WIND CHILL INDEX                            <
>     VSB    - VISIBILITY IN MILES                         <
>     HX     - HEAT INDEX                                  <
>     TC     - TEMPERATURE IN CELSIUS                      <
>     VRB    - VARIABLE WIND DIRECTION                     <
>                                                          <
>>>>>>>>>>>>>>>>>>>>>>>>>>>> KEY <<<<<<<<<<<<<<<<<<<<<<<<<<<




USA.gov is the U.S. government's official web portal to all federal, state and local government web resources and services.